This is the latest recevied weather packets stored in our database for station/object N2PUI. If no packets are shown the sender has not sent any weather packets the latest 1 day(s).
| Time | Temp. | Humidity | Pressure | Rain* | Wind** | Luminosity | Snow |
|---|---|---|---|---|---|---|---|
| 1777984607 | 17.22° C | 63% | 1008.1 hPa | 0 mm | 2.68 m/s, 204° | 134 W/m² | - |
| 1777984304 | 17.22° C | 63% | 1008.2 hPa | 0 mm | 2.24 m/s, 183° | 97 W/m² | - |
| 1777984000 | 17.22° C | 64% | 1008.2 hPa | 0 mm | 1.34 m/s, 219° | 75 W/m² | - |
| 1777983697 | 17.22° C | 63% | 1008.1 hPa | 0 mm | 0 m/s | 80 W/m² | - |
| 1777983388 | 17.22° C | 62% | 1008.3 hPa | 0 mm | 1.79 m/s, 230° | 88 W/m² | - |
| 1777983080 | 17.22° C | 63% | 1008 hPa | 0 mm | 0.45 m/s, 211° | 73 W/m² | - |
| 1777982775 | 17.22° C | 63% | 1007.9 hPa | 0 mm | 0.89 m/s, 193° | 75 W/m² | - |
| 1777982471 | 17.22° C | 62% | 1007.8 hPa | 0 mm | 1.34 m/s, 131° | 78 W/m² | - |
| 1777982166 | 17.22° C | 62% | 1007.8 hPa | 0 mm | 1.79 m/s, 171° | 73 W/m² | - |
| 1777981864 | 17.22° C | 63% | 1008 hPa | 0 mm | 0.45 m/s, 186° | 111 W/m² | - |
| 1777981561 | 16.67° C | 63% | 1008 hPa | 0 mm | 0 m/s | 109 W/m² | - |
| 1777981257 | 16.67° C | 63% | 1007.9 hPa | 0 mm | 1.34 m/s, 148° | 63 W/m² | - |
| 1777980954 | 16.67° C | 62% | 1007.9 hPa | 0 mm | 1.34 m/s, 176° | 32 W/m² | - |
| 1777980650 | 16.67° C | 63% | 1007.8 hPa | 0 mm | 1.34 m/s, 111° | 22 W/m² | - |
| 1777980346 | 16.67° C | 63% | 1007.9 hPa | 0 mm | 2.24 m/s, 163° | 23 W/m² | - |
| 1777980044 | 16.67° C | 64% | 1008 hPa | 0 mm | 1.79 m/s, 140° | 32 W/m² | - |
| 1777979738 | 16.11° C | 64% | 1008 hPa | 0 mm | 1.34 m/s, 138° | 26 W/m² | - |
| 1777979435 | 16.11° C | 65% | 1008 hPa | 0 mm | 2.24 m/s, 167° | 29 W/m² | - |
| 1777979131 | 16.11° C | 65% | 1008.1 hPa | 0 mm | 2.24 m/s, 108° | 40 W/m² | - |
| 1777978828 | 16.11° C | 66% | 1008 hPa | 0 mm | 0 m/s | 44 W/m² | - |
| 1777978525 | 16.11° C | 64% | 1007.9 hPa | 0 mm | 0.89 m/s, 171° | 27 W/m² | - |
| 1777978220 | 16.67° C | 62% | 1007.6 hPa | 0 mm | 1.34 m/s, 201° | 12 W/m² | - |
| 1777977918 | 16.67° C | 60% | 1007.9 hPa | 0 mm | 2.24 m/s, 163° | 11 W/m² | - |
| 1777977615 | 16.67° C | 60% | 1008 hPa | 0 mm | 0 m/s | 15 W/m² | - |
| 1777977312 | 16.67° C | 60% | 1007.9 hPa | 0 mm | 0.45 m/s, 188° | 19 W/m² | - |
* Rain latest hour (hover to see other rain measurements)
** Current wind speed in m/s (hover to see current wind gust speed)